Location: Salamanca
(40.9670°N, 5.6500°W)
Time: 03:04:18
(UTC+02:00)

Daily predictions for brighter satellites

Satellite Brightness Start Highest point End
(mag) Time Altitude Azimuth Time Altitude Azimuth Time Altitude Azimuth
Cosmos 1954 Rocket 4.0 00:00:32 10° NNW 00:05:44 76° WSW 00:07:36 41° S
DNEPR-1 R/B 4.4 00:00:57 10° NNW 00:06:18 49° NE 00:07:40 38° E
Cosmos 1174 3.5 00:03:16 10° NW 00:06:11 58° W 00:06:11 58° W
SL-8 Rocket 3.9 00:03:20 30° S 00:06:35 77° E 00:12:51 10° N
CZ-4C R/B 3.0 00:06:58 71° SSE 00:07:21 84° ENE 00:11:19 10° NNW
Meteor 2-13 Rocket 4.5 00:07:35 24° SSW 00:11:33 80° W 00:17:44 10° N
Cosmos 1825 3.5 00:09:49 21° SW 00:11:51 36° WNW 00:15:25 10° N
Cosmos 2297 3.9 00:11:20 44° SE 00:12:24 50° ESE 00:17:55 10° NE
Cosmos 1741 Rocket 4.1 00:07:22 10° NNW 00:12:34 60° ENE 00:13:47 46° ESE
Intercosmos 25 3.5 00:12:54 45° SW 00:13:49 62° W 00:17:03 10° N
CZ-3C R/B 4.3 00:10:53 10° SW 00:16:22 13° SSW 00:17:06 13° SSW
Cosmos 1812 4.1 00:16:29 10° NNE 00:19:17 27° ENE 00:19:17 27° ENE
APEX 3.6 00:21:11 55° ENE 00:21:11 55° ENE 00:25:17 10° NNE
CZ-4 R/B 4.5 00:16:45 10° N 00:21:19 52° WNW 00:23:59 23° SW
IGS 5A 3.3 00:28:32 83° S 00:28:41 88° W 00:32:52 10° NNW
COSMOS 2487 3.6 00:28:20 10° NW 00:31:32 38° W 00:31:32 38° W
Cosmos 1975 Rocket 4.4 00:30:53 10° NNW 00:34:44 32° W 00:35:54 27° WSW
H-2A R/B 2.4 00:34:47 45° SSW 00:36:17 63° W 00:41:37 10° NNW
CARTOSAT-1 3.7 00:36:20 59° SW 00:36:39 61° W 00:40:56 10° NNW
Meteor 2-8 Rocket 4.4 00:32:01 10° N 00:38:12 82° E 00:39:43 54° SSE
Cosmos 864 Rocket 4.4 00:37:19 45° S 00:39:22 87° W 00:45:34 10° N
Cosmos 2366 rocket 4.1 00:42:10 40° SSW 00:44:35 76° W 00:50:56 10° N
Cosmos 1536 Rocket 3.5 00:43:06 10° N 00:47:33 79° W 00:47:33 79° W
Meteor 1-20 Rocket 4.1 00:47:59 65° SSE 00:48:40 74° E 00:54:14 10° NNE
Meteor 1-25 Rocket 4.2 00:49:14 58° S 00:50:28 89° E 00:56:21 10° N
Spot 2 4.1 00:46:20 10° N 00:50:40 78° NW 00:50:40 78° NW
Okean 1 4.0 00:48:18 10° N 00:51:31 49° NNE 00:51:31 49° NNE
Cosmos 2369 Rocket 4.3 00:56:10 12° ENE 00:56:10 12° ENE 00:57:09 10° ENE
Meteor 1-18 Rocket 4.3 00:49:40 10° NNW 00:55:33 76° W 00:56:40 59° SSW
Cosmos 2151 Rocket 4.3 00:56:54 45° WSW 00:57:27 48° WNW 01:01:51 10° N
Timation 1 Rocket 4.2 01:06:44 68° SE 01:06:57 68° ESE 01:12:55 10° NNE
USA 234 4.0 01:05:02 10° NE 01:11:19 52° NNW 01:17:35 10° WSW
Cosmos 1809 Rocket 4.5 01:12:29 59° ESE 01:12:51 60° E 01:18:56 10° NNE
ASTEX 1 3.7 01:08:40 10° N 01:13:32 60° W 01:13:51 59° W
ALOS 2 3.9 01:15:20 31° NE 01:15:20 31° NE 01:18:39 10° N
Meteor 1-13 Rocket 4.3 01:09:27 10° N 01:15:23 71° E 01:15:50 68° ESE
BREEZE-M DEB (TANK) 4.4 01:16:23 10° NW 01:18:53 26° NNE 01:24:22 10° ENE
Terra 3.4 01:20:12 24° WSW 01:20:35 24° W 01:24:28 10° NW
H-2A R/B 4.2 01:17:24 10° NNE 01:19:58 26° ENE 01:19:58 26° ENE
Cosmos 1000 Rocket 4.3 01:18:49 10° N 01:25:05 85° E 01:25:42 74° SSE
Meteor 1-11 Rocket 3.7 01:25:39 72° ESE 01:25:43 72° E 01:31:32 10° NNE
Okean 1-7 Rocket 4.1 01:21:41 10° N 01:25:25 58° NNW 01:25:25 58° NNW
Lacrosse 5 4.1 01:29:42 14° ENE 01:29:42 14° ENE 01:30:30 10° ENE
Cosmos 2278 Rocket 4.3 01:22:24 10° WSW 01:26:51 23° NW 01:31:18 10° N
Cosmos 1302 Rocket 4.4 01:31:20 52° ENE 01:31:20 52° ENE 01:35:39 10° NNE
Gbstr 26 Del rocket 4.4 01:27:59 10° NW 01:32:10 32° NNE 01:32:39 32° NE
Okean 1 Rocket 3.8 01:32:58 51° NW 01:32:58 51° NW 01:36:47 10° N
Cosmos 1833 Rocket 2.9 01:28:35 10° NNW 01:33:57 56° WSW 01:33:57 56° WSW
Meteor 2-4 Rocket 3.9 01:31:26 10° N 01:36:35 55° ENE 01:36:35 55° ENE
Cosmos 1025 Rocket 3.9 01:38:09 10° N 01:41:23 48° N 01:41:23 48° N
Cosmos 2082 Rocket 3.2 01:41:01 10° NW 01:45:56 35° W 01:45:56 35° W
Cosmos 1943 Rocket 4.3 01:48:04 14° E 01:48:04 14° E 01:49:40 10° ENE
Meteor 2-15 Rocket 4.3 01:51:25 10° N 01:57:35 77° E 01:57:44 77° E
Cosmos 2285 Rocket 4.0 01:59:04 67° E 01:59:04 67° E 02:05:18 10° NNE
USA 229 DEB 4.1 01:53:58 10° NW 02:00:45 49° WSW 02:00:58 49° WSW
USA 229 4.1 01:54:03 10° NW 02:00:51 50° WSW 02:01:04 49° WSW
Cosmos 1503 Rocket 4.3 01:56:54 10° NNW 02:01:38 62° NE 02:01:38 62° NE
Cosmos 1536 4.4 02:03:48 34° NNW 02:03:48 34° NNW 02:06:13 10° N
Meteor 2-14 Rocket 4.3 02:02:03 77° WSW 02:02:17 79° W 02:08:27 10° N
Cosmos 1821 Rocket 4.2 02:02:12 58° WSW 02:02:54 61° W 02:09:07 10° N
Cosmos 1605 Rocket 3.9 02:02:58 79° SE 02:03:13 80° E 02:09:38 10° N
Meteor 2-15 4.3 02:00:35 10° N 02:06:43 77° W 02:06:48 77° WSW
Cosmos 1400 Rocket 4.4 02:09:14 34° NNW 02:09:14 34° NNW 02:11:53 10° N
Meteor 1-23 Rocket 4.2 02:04:54 10° NNW 02:10:05 74° NW 02:10:05 74° NW
Cosmos 2123 Rocket 4.0 02:12:10 10° NNW 02:18:24 67° W 02:18:32 67° WSW
NOSS 3-1 (A) 4.1 02:11:53 10° NNW 02:19:30 75° NE 02:21:52 50° SE
Cosmos 1934 Rocket 4.4 02:23:20 48° W 02:23:48 49° WNW 02:29:39 10° N
CZ-4B R/B 4.4 02:31:12 12° NNW 02:31:12 12° NNW 02:31:32 10° NNW
SeaSat 1 3.7 02:34:11 32° ENE 02:34:56 34° NE 02:39:21 10° N
Cosmos 2369 Rocket 2.2 02:37:57 75° NNW 02:37:57 75° NNW 02:43:19 10° NNE
Meteor 1-12 Rocket 4.3 02:39:29 71° ENE 02:39:29 71° ENE 02:44:45 10° NNE
ATLAS 2AS CENTAUR R/B 3.9 02:33:09 10° NNW 02:40:56 46° NE 02:46:37 17° ESE
NOSS 3-1 (C) 4.0 02:44:29 10° NW 02:52:02 62° WSW 02:52:44 60° SW
Helios 1A Rocket 4.4 02:51:49 10° N 02:54:35 33° NNW 02:54:35 33° NNW
H-2A R/B 4.4 02:53:15 10° NNW 02:56:36 24° WNW 02:56:36 24° WNW
CZ-2C R/B 2.9 02:57:29 10° N 03:02:19 56° WNW 03:02:19 56° WNW
Lacrosse 5 2.4 03:08:52 52° NW 03:08:56 52° NW 03:13:56 10° NE
Cosmos 1992 Rocket 4.4 03:10:23 55° NW 03:10:23 55° NW 03:15:11 10° N
ISS -0.2 03:10:49 13° NNW 03:11:33 14° N 03:13:19 10° NNE
Lacrosse 5 rocket 3.2 03:15:14 26° N 03:15:14 26° N 03:17:32 10° NNE
CZ-2C R/B 3.5 03:16:35 50° WNW 03:16:35 50° WNW 03:20:36 10° NNW
Cosmos 2100 Rocket 4.2 03:23:01 55° W 03:23:33 57° W 03:29:50 10° N
PSLV R/B 4.5 03:19:47 10° NNE 03:23:17 45° ENE 03:23:17 45° ENE
Cosmos 2061 Rocket 4.2 03:25:30 57° WSW 03:26:06 59° W 03:32:27 10° N
Cosmos 1656 Rocket 3.9 03:29:23 56° ESE 03:29:24 56° ESE 03:34:55 10° NNE
Cosmos 1943 Rocket 2.1 03:29:34 70° WNW 03:29:38 70° WNW 03:35:14 10° NNE
Cosmos 1666 4.4 03:35:15 30° NE 03:35:15 30° NE 03:37:43 10° NNE
Meteor 1-21 4.1 03:37:46 10° N 03:43:24 83° E 03:43:52 75° SE
Cosmos 1606 Rocket 4.0 03:44:51 56° N 03:44:51 56° N 03:48:19 10° N
Cosmos 1802 Rocket 4.4 03:44:12 46° W 03:44:48 48° WNW 03:50:50 10° N
Cosmos 2228 4.0 03:45:23 41° E 03:45:23 41° E 03:49:08 10° NNE
Cosmos 2233 Rocket 4.2 03:45:32 51° SE 03:46:47 61° E 03:52:49 10° NNE
Cosmos 2016 Rocket 4.2 03:47:36 51° W 03:48:12 53° W 03:54:11 10° N
Resurs 1-4 Rocket 4.5 03:47:51 10° ENE 03:50:10 13° E 03:52:27 10° ESE
Cosmos 1241 Rocket 4.4 03:43:49 10° NNW 03:50:19 83° WSW 03:51:49 57° SSE
Cosmos 44 Rocket 3.5 03:45:52 10° NNW 03:50:59 72° ENE 03:51:29 66° E
Cosmos 2058 Rocket 3.2 03:55:50 69° NNE 03:55:50 69° NNE 03:59:47 10° N
SL-8 R/B 4.1 03:52:00 10° WNW 03:56:46 60° NNE 04:01:29 10° ESE
Cosmos 1570 Rocket 4.1 03:59:01 63° SE 03:59:28 67° ESE 04:04:46 10° NNE
Cosmos 2098 Rocket 4.1 04:02:44 55° SW 04:04:01 67° W 04:11:20 10° N
ADEOS 4.5 04:02:58 10° NNE 04:07:53 40° E 04:09:12 34° SE
Cosmos 1953 Rocket 4.5 04:05:41 10° NNW 04:08:48 38° NW 04:08:48 38° NW
NOSS 3-3 (A) 3.9 04:08:48 58° SSW 04:10:11 85° ESE 04:16:54 10° NE
NOSS 3-3 (C) 3.9 04:08:53 58° SSW 04:10:16 85° ESE 04:16:59 10° NE
SeaSat 1 3.7 04:13:59 27° WNW 04:13:59 27° WNW 04:16:50 10° NW
BREEZE-M DEB (TANK) 3.3 04:03:14 10° WNW 04:14:36 77° NNE 04:17:30 14° ESE
SL-08 R/B 3.2 04:15:34 72° SSE 04:16:03 85° ENE 04:20:45 10° NNW
Cosmos 1725 Rocket 4.4 04:20:20 40° WSW 04:21:27 44° WNW 04:27:20 10° N
Cosmos 2369 Rocket 4.5 04:20:02 10° WNW 04:22:39 13° NW 04:25:16 10° NNW
ERS-2 2.7 04:20:36 10° NNE 04:24:05 52° E 04:24:05 52° E
Meteor 2-9 Rocket 4.3 04:23:22 54° SW 04:24:36 71° W 04:30:27 10° N
Tsikada Rocket 4.4 04:19:34 10° NNW 04:25:27 44° W 04:26:24 41° WSW
Cosmos 2219 3.3 04:20:31 10° NNW 04:25:59 52° WSW 04:26:11 51° WSW
Geosat 3.9 04:21:47 10° NNE 04:26:50 79° WNW 04:27:43 60° SW
SL-16 R/B 3.6 04:21:30 10° SE 04:27:14 43° ENE 04:33:00 10° N
Meteor 2-17 Rocket 4.4 04:27:44 49° SW 04:29:18 68° W 04:35:25 10° N
ATLAS 2AS CENTAUR R/B 3.2 04:24:26 10° NW 04:32:01 47° WSW 04:33:57 40° SSW
ARIANE 5 R/B 3.5 04:27:15 10° NNE 04:32:05 41° E 04:34:15 27° SSE
Cosmos 2227 Rocket 3.0 04:29:26 10° NNW 04:34:59 51° ENE 04:40:29 10° SE
CZ-2D R/B 3.4 04:31:25 10° NNE 04:36:24 35° E 04:39:31 20° SSE
IRS-1C 4.0 04:34:12 10° NNE 04:39:34 85° WNW 04:41:07 48° SSW
Cosmos 2208 Rocket 4.2 04:38:40 49° WSW 04:39:42 58° WNW 04:44:53 10° NNE
Spot 4 Rocket 4.1 04:35:00 10° NNE 04:40:09 70° ESE 04:41:53 42° S
Milstar 3 Cent rocket 3.9 04:42:06 19° SSE 04:42:06 19° SSE 04:46:39 10° ESE
Cosmos 44 3.2 04:39:48 10° NNW 04:45:00 86° WSW 04:47:48 26° SSE
Cosmos 2369 3.9 04:45:26 36° S 04:47:38 62° ESE 04:53:13 10° NNE
Cosmos 2278 3.8 04:45:36 40° S 04:47:40 71° ESE 04:53:19 10° NNE
ISS -0.2 04:46:58 10° NNW 04:49:00 15° NNE 04:51:02 10° NE
Cosmos 2298 Rocket 4.4 04:45:45 10° NNW 04:51:02 65° ENE 04:56:17 10° SSE
IRS-1D 3.9 04:46:44 10° NNE 04:51:37 57° E 04:53:54 30° SSE
Lacrosse 5 4.3 04:49:38 10° WNW 04:52:58 17° NNW 04:56:18 10° NNE
Cosmos 1340 4.5 04:52:21 10° NW 04:54:11 20° WNW 04:54:11 20° WNW
CBERS-1 4.4 04:50:31 10° N 04:55:27 48° WNW 04:56:52 38° WSW
Cosmos 2297 Rocket 2.9 04:51:35 10° NNW 04:57:08 55° ENE 05:02:40 10° SE
SAR-Lupe-3 4.3 05:02:07 68° SSW 05:02:27 78° WSW 05:05:58 10° NNW
BREEZE-M DEB (TANK) 3.9 05:01:22 28° S 05:03:14 37° SE 05:06:59 10° ENE
CZ-3A R/B 4.0 04:54:17 25° SW 05:03:36 73° SE 05:08:41 10° NE
Okean O Rocket 3.8 05:00:55 10° NE 05:04:15 21° E 05:07:35 10° SE
Meteor 1-24 Rocket 4.4 04:58:46 10° N 05:04:20 56° ENE 05:10:04 10° SSE
SME Rocket 4.0 05:00:42 19° SSE 05:04:32 90° NE 05:12:18 10° NNW
Cosmos 1814 Rocket 4.4 05:01:53 28° S 05:04:38 59° ESE 05:09:54 10° NNE
UNK 3.8 05:06:02 19° SSE 05:09:26 79° ENE 05:14:08 10° N
Cosmos 1766 4.4 05:07:27 20° SSE 05:09:48 40° E 05:13:31 10° NNE
GEOS 3 Rocket 3.5 05:07:05 10° SSE 05:12:17 68° SW 05:17:27 10° NW
Cosmos 1943 Rocket 4.4 05:12:24 10° WNW 05:14:28 12° NW 05:16:33 10° NNW
Cosmos 405 Rocket 2.8 05:11:36 10° NNW 05:15:40 65° W 05:17:03 38° SSW
ATLAS CENTAUR R/B 2.4 05:14:55 25° S 05:17:32 50° ESE 05:22:23 10° NE
UNKNOWN OBJECT B 3.2 05:16:42 10° NNE 05:20:36 58° E 05:22:46 24° S
Cosmos 1953 4.3 05:17:25 10° SSE 05:20:46 26° E 05:24:10 10° NNE
SL-24 R/B 4.4 05:18:06 23° S 05:21:15 62° WSW 05:25:55 10° NNW
USA 161 2.8 05:23:51 28° WNW 05:23:51 28° WNW 05:25:49 10° NNW
Cosmos 1464 Rocket 4.3 05:20:59 27° SW 05:24:10 50° WNW 05:30:18 10° N
BREEZE-M DEB 4.4 05:22:52 19° NW 05:24:19 52° NNE 05:27:16 10° ESE
CZ-3 R/B 4.4 05:11:44 20° SSW 05:27:34 33° S 05:36:45 10° ESE
Cosmos 1076 Rocket 4.1 05:23:21 10° N 05:27:39 58° E 05:31:53 10° SSE
NOSS 2-1 (D) 3.3 05:27:13 34° SW 05:28:52 82° NW 05:33:16 10° NNE
Cosmos 858 Rocket 4.4 05:24:13 10° NNW 05:29:26 73° WSW 05:34:39 10° S
Cosmos 220 Rocket 3.9 05:25:16 10° NNW 05:29:35 61° WSW 05:32:43 17° S
NOSS 2-1 (C) 3.3 05:28:30 33° SW 05:30:11 82° NW 05:34:36 10° NNE
Resurs 1-4 Rocket 2.1 05:25:17 10° N 05:30:33 76° WNW 05:33:58 22° SSW
Cosmos 2150 Rocket 3.9 05:25:22 10° NNW 05:30:34 64° WSW 05:35:39 10° S
CZ-4B R/B 4.5 05:26:56 10° NNE 05:32:05 38° E 05:37:07 10° SSE
EO 1 Del DPAF 3.2 05:31:03 22° S 05:33:22 65° WSW 05:37:15 10° NNW
Cosmos 468 Rocket 4.1 05:31:44 26° SW 05:34:39 63° WNW 05:39:47 10° NNE
Cosmos 990 Rocket 4.1 05:32:49 10° NNW 05:38:05 77° ENE 05:43:20 10° SSE
SL-8 R/B 4.2 05:34:49 10° WNW 05:39:10 35° SW 05:43:29 10° SSE
Cosmos 1766 Rocket 3.8 05:35:37 10° N 05:40:00 70° E 05:44:24 10° SSE
Cosmos 1408 Rocket 3.6 05:36:10 10° N 05:40:33 78° E 05:44:56 10° S
Cosmos 1092 Rocket 4.1 05:36:06 10° N 05:42:23 84° E 05:48:43 10° S
NOSS 2-1 (E) 3.6 05:43:04 25° SW 05:45:15 63° NW 05:49:46 10° NNE
MOZ.5/SAFIR/RUBIN 5/SL-8 4.5 05:42:00 10° SSE 05:46:38 57° ENE 05:51:14 10° N
Cosmos 1805 4.2 05:43:22 10° SSE 05:47:07 46° E 05:50:53 10° NNE
Meteor 2-5 Rocket 4.5 05:42:50 10° NNW 05:48:05 36° W 05:51:58 17° SSW
Cosmos-2242 3.4 05:45:13 10° S 05:49:29 62° E 05:53:45 10° NNE
Cosmos 1898 Rocket 3.9 05:45:49 10° NNW 05:50:48 41° WSW 05:55:46 10° S
Cosmos 1378 3.1 05:47:05 10° NNW 05:50:52 72° W 05:54:37 10° S
NOSS 3-4 (A) 3.8 05:47:47 10° NW 05:54:48 84° WSW 06:02:14 10° SSE
NOSS 3-4 (C) 3.8 05:47:53 10° NW 05:54:57 85° WSW 06:02:24 10° SSE
Cosmos 1707 4.0 05:52:02 10° NW 05:55:13 24° W 05:56:37 19° WSW
Cosmos 1441 Rocket 3.2 05:52:21 10° NNW 05:56:20 80° W 06:00:19 10° S
ERS-2 4.5 05:56:29 10° NW 05:57:35 11° WNW 05:58:42 10° W
Cosmos 1656 3.9 05:57:58 16° SW 06:02:27 60° WNW 06:08:04 10° NNE
CZ-4B R/B 3.4 05:58:42 10° NNE 06:02:41 55° E 06:06:26 10° S
Cosmos 2082 4.5 06:00:14 10° NW 06:05:05 30° WSW 06:09:54 10° SSW
Cosmos 2142 Rocket 4.5 06:00:14 10° S 06:06:23 87° W 06:12:32 10° N
Cosmos 1937 Rocket 3.9 06:04:07 10° NW 06:08:54 39° WSW 06:13:42 10° S
Cosmos 841 Rocket 3.5 06:04:31 12° SSW 06:09:23 74° WNW 06:14:40 10° NNE
Cosmos 1697 Rocket 2.8 06:05:10 13° SSW 06:10:12 69° WNW 06:15:53 10° NNE
SL-16 R/B 3.3 06:05:46 11° SSW 06:10:57 30° W 06:16:19 10° NW
ARIANE 5 R/B 3.8 06:06:55 10° NNW 06:10:58 24° WNW 06:14:36 12° WSW
In-Cosmos 22 4.0 06:10:26 10° NNW 06:15:43 75° W 06:20:59 10° S
CZ-2D R/B 3.2 06:11:37 10° N 06:16:22 31° WNW 06:20:50 11° SW
Cosmos 1980 Rocket 2.3 06:11:03 10° SSW 06:16:39 83° ESE 06:22:20 10° NNE
BREEZE-M DEB (TANK) 4.0 06:14:29 10° W 06:18:22 27° NNW 06:20:30 10° NE
Cosmos 2227 Rocket 3.4 06:14:21 10° NW 06:18:37 22° W 06:22:52 10° SSW
ADEOS Rocket 4.5 06:13:01 10° NNE 06:19:02 42° E 06:25:37 10° SSE
Cosmos 1763 Rocket 3.8 06:14:26 12° SW 06:19:16 53° WNW 06:24:22 10° N
Thor Agena Rocket 3.5 06:15:01 10° SSE 06:20:04 85° WSW 06:25:08 10° NNW
GPS 2-04 Rocket1 3.5 06:17:36 13° SW 06:20:33 33° S 06:23:53 10° ESE
ARGOS Delta rocket 4.0 06:18:51 10° N 06:24:07 90° WSW 06:29:03 10° SSW
ASTRO E2 4.3 06:23:00 11° SW 06:25:38 20° S 06:28:36 10° SE
Cosmos 2322 Rocket 3.5 06:20:40 10° S 06:25:47 38° ESE 06:30:55 10° NE
ISS -2.3 06:22:51 10° NW 06:26:02 49° NNE 06:29:12 10° ESE
Cosmos 2279 Rocket 4.1 06:20:32 10° S 06:26:47 83° E 06:33:04 10° N
PSLV R/B 4.3 06:23:43 10° N 06:27:25 42° WNW 06:31:00 10° SW
Cosmos 1655 Rocket 4.1 06:22:10 10° N 06:28:36 82° W 06:34:59 10° S
CZ-3 Stage 3 4.3 05:55:59 10° W 06:29:39 49° SSW 06:35:51 10° SE
Cosmos 1470 2.9 06:35:34 10° S 06:39:29 81° E 06:43:27 10° N
Okean O Rocket 2.4 06:36:44 10° N 06:40:41 34° WNW 06:44:40 10° SW
Cosmos 2297 Rocket 3.4 06:36:39 10° NW 06:40:42 21° W 06:44:45 10° SSW
